| time (UTC) | temp F | wind direction | speed knots | gust knots | rain 1hr in | rain 24hr in | rain mn in | humidity % | barometer mb |
| 20260507075724 | 52 | 0.0 | 0.0 | 0.00 | 0.00 | 0.00 | 91 | 1010.4 | |
| 20260507073719 | 52 | 0.0 | 0.0 | 0.00 | 0.00 | 0.00 | 90 | 1010.2 | |
| 20260507072716 | 52 | 0.0 | 0.0 | 0.00 | 0.00 | 0.00 | 90 | 1010.2 | |
| 20260507071729 | 52 | 0.0 | 0.0 | 0.00 | 0.00 | 0.00 | 90 | 1010.0 | |
| 20260507070725 | 52 | 0.0 | 0.0 | 0.00 | 0.00 | 0.00 | 90 | 1009.9 | |
| 20260507065722 | 52 | 0.0 | 0.0 | 0.00 | 0.00 | 0.00 | 89 | 1009.7 | |
| 20260507064720 | 52 | 0.0 | 0.0 | 0.00 | 0.00 | 0.00 | 90 | 1009.7 | |
| 20260507063717 | 52 | 0.0 | 0.0 | 0.00 | 0.00 | 0.00 | 90 | 1009.6 | |
| 20260507062729 | 51 | 0.0 | 0.0 | 0.00 | 0.00 | 0.00 | 90 | 1009.5 | |
| 20260507061726 | 51 | 0.0 | 0.0 | 0.00 | 0.00 | 0.00 | 89 | 1009.4 | |
| 20260507060724 | 52 | 0.0 | 0.0 | 0.00 | 0.00 | 0.00 | 89 | 1009.4 | |
| 20260507055722 | 52 | 0.0 | 0.0 | 0.00 | 0.00 | 0.00 | 88 | 1009.4 | |
| 20260507054718 | 53 | 0.0 | 0.0 | 0.00 | 0.00 | 0.00 | 89 | 1009.1 | |
| 20260507053730 | 52 | 0.0 | 0.0 | 0.00 | 0.00 | 0.00 | 90 | 1008.9 | |
| 20260507052727 | 51 | 0.0 | 0.0 | 0.00 | 0.00 | 0.00 | 92 | 1008.6 | |
| 20260507051724 | 51 | 0.0 | 0.0 | 0.00 | 0.00 | 0.00 | 92 | 1008.6 | |
| 20260507050721 | 52 | 0.0 | 0.0 | 0.00 | 0.00 | 0.00 | 93 | 1008.5 | |
| 20260507045723 | 52 | 0.0 | 0.0 | 0.00 | 0.00 | 0.00 | 93 | 1008.5 | |
| 20260507044715 | 51 | 0.0 | 0.0 | 0.00 | 0.00 | 0.00 | 93 | 1008.5 | |
| 20260507043727 | 51 | 0.0 | 0.0 | 0.00 | 0.00 | 0.00 | 93 | 1008.5 | |
| 20260507042724 | 52 | 0.0 | 0.0 | 0.00 | 0.00 | 0.00 | 93 | 1008.4 | |
| 20260507041722 | 51 | 0.0 | 0.0 | 0.00 | 0.00 | 0.00 | 93 | 1008.4 | |
| 20260507040719 | 51 | 0.0 | 0.0 | 0.00 | 0.00 | 0.00 | 93 | 1008.3 | |
| 20260507035716 | 51 | 0.0 | 0.0 | 0.00 | 0.00 | 0.00 | 93 | 1008.2 | |
| 20260507034733 | 51 | 0.0 | 0.0 | 0.00 | 0.00 | 0.00 | 93 | 1008.2 | |
| 20260507033725 | 51 | 0.0 | 0.0 | 0.00 | 0.00 | 0.00 | 93 | 1008.0 | |
| 20260507032723 | 52 | 0.0 | 0.0 | 0.00 | 0.00 | 0.00 | 93 | 1008.1 | |
| 20260507031720 | 51 | 0.0 | 0.0 | 0.00 | 0.00 | 0.00 | 93 | 1008.1 | |
| 20260507030717 | 51 | 0.0 | 0.0 | 0.00 | 0.00 | 0.00 | 94 | 1008.0 | |
| 20260507025729 | 51 | 0.0 | 0.0 | 0.00 | 0.00 | 0.00 | 94 | 1008.0 | |
| 20260507024726 | 51 | 0.0 | 0.0 | 0.00 | 0.00 | 0.00 | 94 | 1007.9 | |
| 20260507021718 | 52 | 0.0 | 0.0 | 0.00 | 0.00 | 0.00 | 94 | 1007.6 | |
| 20260507020715 | 52 | 0.0 | 0.0 | 0.00 | 0.00 | 0.00 | 94 | 1007.5 | |
| 20260507015727 | 53 | 0.0 | 0.0 | 0.00 | 0.00 | 0.00 | 94 | 1007.5 | |
| 20260507014724 | 53 | 0.0 | 0.0 | 0.00 | 0.00 | 0.00 | 94 | 1007.5 | |
| 20260507013721 | 53 | 0.0 | 0.0 | 0.00 | 0.00 | 0.00 | 93 | 1007.1 | |
| 20260507012719 | 53 | 0.0 | 0.0 | 0.00 | 0.00 | 0.00 | 93 | 1007.6 | |
| 20260507011716 | 53 | 0.0 | 0.0 | 0.00 | 0.00 | 0.00 | 93 | 1007.6 | |
| 20260507010728 | 54 | 0.0 | 0.0 | 0.00 | 0.00 | 0.00 | 92 | 1007.2 | |
| 20260507005725 | 54 | 0.0 | 0.0 | 0.00 | 0.00 | 0.00 | 92 | 1006.9 | |
| 20260507004722 | 54 | 0.0 | 0.0 | 0.00 | 0.00 | 0.00 | 92 | 1006.7 | |
| 20260507003719 | 54 | 0.0 | 0.0 | 0.00 | 0.00 | 0.00 | 92 | 1006.6 | |
| 20260507002717 | 54 | 0.0 | 0.0 | 0.00 | 0.00 | 0.00 | 92 | 1006.5 | |
| 20260507001729 | 55 | 0.0 | 0.0 | 0.00 | 0.00 | 0.00 | 92 | 1006.5 | |
| 20260507000726 | 55 | 0.0 | 0.0 | 0.00 | 0.00 | 0.00 | 92 | 1006.7 | |
| 20260506235723 | 55 | 0.0 | 0.0 | 0.00 | 0.00 | 0.00 | 91 | 1006.5 | |
| 20260506234720 | 55 | 0.0 | 0.0 | 0.00 | 0.00 | 0.00 | 91 | 1006.5 | |
| 20260506233717 | 55 | 0.0 | 0.0 | 0.00 | 0.00 | 0.00 | 91 | 1006.5 | |
| 20260506232729 | 55 | 0.0 | 0.0 | 0.00 | 0.00 | 0.00 | 90 | 1006.5 | |
| 20260506231727 | 56 | 0.0 | 0.0 | 0.00 | 0.00 | 0.00 | 90 | 1006.5 | |
| 20260506230724 | 56 | 0.0 | 0.0 | 0.00 | 0.00 | 0.00 | 89 | 1006.7 | |
| 20260506224718 | 56 | 0.0 | 0.0 | 0.00 | 0.00 | 0.00 | 88 | 1006.5 | |
| 20260506223716 | 56 | 0.0 | 0.0 | 0.00 | 0.00 | 0.00 | 87 | 1006.6 | |
| 20260506221725 | 57 | 0.0 | 0.0 | 0.00 | 0.00 | 0.00 | 85 | 1006.5 | |
| 20260506220722 | 57 | 0.0 | 0.0 | 0.00 | 0.00 | 0.00 | 83 | 1006.5 | |
| 20260506215719 | 58 | 0.0 | 0.0 | 0.00 | 0.00 | 0.00 | 83 | 1006.5 | |
| 20260506214717 | 58 | 0.0 | 0.0 | 0.00 | 0.00 | 0.00 | 82 | 1006.3 | |
| 20260506212726 | 59 | 0.0 | 0.0 | 0.00 | 0.00 | 0.00 | 81 | 1006.2 | |
| 20260506211723 | 59 | 0.0 | 0.0 | 0.00 | 0.00 | 0.00 | 80 | 1006.1 | |
| 20260506210720 | 59 | 0.0 | 0.0 | 0.00 | 0.00 | 0.00 | 80 | 1006.3 | |
| 20260506205717 | 59 | 0.0 | 0.0 | 0.00 | 0.00 | 0.00 | 79 | 1006.0 | |
| 20260506204730 | 59 | 0.0 | 0.0 | 0.00 | 0.00 | 0.00 | 80 | 1006.1 | |
| 20260506203727 | 59 | 0.0 | 0.0 | 0.00 | 0.00 | 0.00 | 80 | 1006.2 | |
| 20260506202724 | 59 | 0.0 | 0.0 | 0.00 | 0.00 | 0.00 | 80 | 1006.0 | |
| 20260506201721 | 60 | 0.0 | 0.0 | 0.00 | 0.00 | 0.00 | 80 | 1006.1 | |
| 20260506195729 | 60 | 0.0 | 0.0 | 0.00 | 0.00 | 0.00 | 78 | 1005.9 | |
| 20260506194727 | 60 | 0.0 | 0.0 | 0.00 | 0.00 | 0.00 | 77 | 1005.7 | |
| 20260506193723 | 61 | 0.0 | 0.0 | 0.00 | 0.00 | 0.00 | 75 | 1005.6 | |
| 20260506192721 | 61 | 0.0 | 0.0 | 0.00 | 0.00 | 0.00 | 74 | 1005.6 | |
| 20260506190715 | 62 | 0.0 | 0.0 | 0.00 | 0.00 | 0.00 | 73 | 1005.4 | |
| 20260506185727 | 63 | 0.0 | 0.0 | 0.00 | 0.00 | 0.00 | 71 | 1005.6 | |
| 20260506184724 | 63 | 0.0 | 0.0 | 0.00 | 0.00 | 0.00 | 70 | 1005.4 | |
| 20260506183721 | 64 | 0.0 | 0.0 | 0.00 | 0.00 | 0.00 | 68 | 1005.1 | |
| 20260506182718 | 64 | 0.0 | 0.0 | 0.00 | 0.00 | 0.00 | 67 | 1005.2 | |
| 20260506181715 | 65 | 0.0 | 0.0 | 0.00 | 0.00 | 0.00 | 66 | 1005.0 | |
| 20260506180727 | 66 | 0.0 | 0.0 | 0.00 | 0.00 | 0.00 | 66 | 1004.9 | |
| 20260506175724 | 67 | 0.0 | 0.0 | 0.00 | 0.00 | 0.00 | 64 | 1004.7 | |
| 20260506174721 | 67 | 0.0 | 0.0 | 0.00 | 0.00 | 0.00 | 62 | 1004.6 | |
| 20260506170724 | 69 | 0.0 | 0.0 | 0.00 | 0.00 | 0.00 | 56 | 1004.6 | |
| 20260506165721 | 70 | 0.0 | 0.0 | 0.00 | 0.00 | 0.00 | 54 | 1004.4 | |
| 20260506163730 | 71 | 0.0 | 0.0 | 0.00 | 0.00 | 0.00 | 53 | 1004.2 | |
| 20260506162727 | 71 | 0.0 | 0.0 | 0.00 | 0.00 | 0.00 | 52 | 1004.3 | |
| 20260506161724 | 72 | 0.0 | 0.0 | 0.00 | 0.00 | 0.00 | 47 | 1004.4 | |
| 20260506160721 | 73 | 0.0 | 0.0 | 0.00 | 0.00 | 0.00 | 46 | 1004.4 | |
| 20260506155718 | 74 | 0.0 | 0.0 | 0.00 | 0.00 | 0.00 | 46 | 1004.4 | |
| 20260506154715 | 75 | 0.0 | 0.0 | 0.00 | 0.00 | 0.00 | 45 | 1004.5 | |
| 20260506153727 | 77 | 0.0 | 0.0 | 0.00 | 0.00 | 0.00 | 41 | 1004.7 | |
| 20260506152725 | 80 | 0.0 | 0.0 | 0.00 | 0.00 | 0.00 | 38 | 1004.5 | |
| 20260506151722 | 80 | 0.0 | 0.0 | 0.00 | 0.00 | 0.00 | 37 | 1004.7 | |
| 20260506150719 | 79 | 0.0 | 0.0 | 0.00 | 0.00 | 0.00 | 41 | 1004.7 | |
| 20260506145716 | 79 | 0.0 | 0.0 | 0.00 | 0.00 | 0.00 | 40 | 1004.7 | |
| 20260506144728 | 77 | 0.0 | 0.0 | 0.00 | 0.00 | 0.00 | 43 | 1004.7 | |
| 20260506143725 | 75 | 0.0 | 0.0 | 0.00 | 0.00 | 0.00 | 44 | 1004.8 | |
| 20260506142722 | 77 | 0.0 | 0.0 | 0.00 | 0.00 | 0.00 | 41 | 1004.8 | |
| 20260506141720 | 77 | 0.0 | 0.0 | 0.00 | 0.00 | 0.00 | 43 | 1004.8 | |
| 20260506140717 | 77 | 0.0 | 0.0 | 0.00 | 0.00 | 0.00 | 42 | 1005.0 | |
| 20260506135729 | 76 | 0.0 | 0.0 | 0.00 | 0.00 | 0.00 | 44 | 1005.0 | |
| 20260506133723 | 72 | 0.0 | 0.0 | 0.00 | 0.00 | 0.00 | 46 | 1005.1 | |
| 20260506132720 | 73 | 0.0 | 0.0 | 0.00 | 0.00 | 0.00 | 44 | 1005.0 | |
| 20260506131718 | 75 | 0.0 | 0.0 | 0.00 | 0.00 | 0.00 | 45 | 1005.1 | |
| 20260506130730 | 75 | 0.0 | 0.0 | 0.00 | 0.00 | 0.00 | 44 | 1005.1 | |
| 20260506125727 | 74 | 0.0 | 0.0 | 0.00 | 0.00 | 0.00 | 46 | 1005.1 | |
| 20260506124724 | 74 | 0.0 | 0.0 | 0.00 | 0.00 | 0.00 | 45 | 1005.2 | |
| 20260506123721 | 75 | 0.0 | 0.0 | 0.00 | 0.00 | 0.00 | 45 | 1005.2 | |
| 20260506122718 | 74 | 0.0 | 0.0 | 0.00 | 0.00 | 0.00 | 47 | 1005.3 | |
| 20260506121716 | 70 | 0.0 | 0.0 | 0.00 | 0.00 | 0.00 | 55 | 1005.3 | |
| 20260506115725 | 68 | 0.0 | 0.0 | 0.00 | 0.00 | 0.00 | 57 | 1005.2 | |
| 20260506114722 | 67 | 0.0 | 0.0 | 0.00 | 0.00 | 0.00 | 57 | 1005.3 | |
| 20260506113719 | 66 | 0.0 | 0.0 | 0.00 | 0.00 | 0.00 | 56 | 1005.2 | |
| 20260506112716 | 67 | 0.0 | 0.0 | 0.00 | 0.00 | 0.00 | 56 | 1005.2 | |
| 20260506111728 | 68 | 0.0 | 0.0 | 0.00 | 0.00 | 0.00 | 56 | 1005.2 | |
| 20260506110725 | 69 | 0.0 | 0.0 | 0.00 | 0.00 | 0.00 | 56 | 1005.2 | |
| 20260506105723 | 71 | 0.0 | 0.0 | 0.00 | 0.00 | 0.00 | 52 | 1005.1 | |
| 20260506103717 | 72 | 0.0 | 0.0 | 0.00 | 0.00 | 0.00 | 48 | 1005.2 | |
| 20260506102729 | 70 | 0.0 | 0.0 | 0.00 | 0.00 | 0.00 | 55 | 1005.2 | |
| 20260506101726 | 67 | 0.0 | 0.0 | 0.00 | 0.00 | 0.00 | 62 | 1005.2 | |
| 20260506095720 | 67 | 0.0 | 0.0 | 0.00 | 0.00 | 0.00 | 63 | 1005.2 | |
| 20260506094716 | 65 | 0.0 | 0.0 | 0.00 | 0.00 | 0.00 | 67 | 1005.1 | |
| 20260506093729 | 64 | 0.0 | 0.0 | 0.00 | 0.00 | 0.00 | 66 | 1005.1 | |
| 20260506092726 | 65 | 0.0 | 0.0 | 0.00 | 0.00 | 0.00 | 64 | 1004.9 | |
| 20260506091723 | 67 | 0.0 | 0.0 | 0.00 | 0.00 | 0.00 | 57 | 1004.9 | |
| 20260506090720 | 70 | 0.0 | 0.0 | 0.00 | 0.00 | 0.00 | 56 | 1004.8 | |
| 20260506085717 | 66 | 0.0 | 0.0 | 0.00 | 0.00 | 0.00 | 65 | 1004.7 | |
| 20260506083726 | 67 | 0.0 | 0.0 | 0.00 | 0.00 | 0.00 | 62 | 1004.6 | |
| 20260506082723 | 68 | 0.0 | 0.0 | 0.00 | 0.00 | 0.00 | 60 | 1004.5 | |
| 20260506081720 | 66 | 0.0 | 0.0 | 0.00 | 0.00 | 0.00 | 65 | 1004.4 | |
| 20260506080717 | 64 | 0.0 | 0.0 | 0.00 | 0.00 | 0.00 | 71 | 1004.5 |